Погода в Сухане

Погода в Сухане : погода сейчас, прогноз погоды и архив. Всё, что Вы хотите узнать о погоде в Сухане!

Поиск расширенной информации на нашем сайте:

Другие новости

Новости СМИ2

Главная страница сайта

Новости сайта

02.10.2013

Напоминаем, что на нашем новом сайте вы можете получить высокодетализированные прогнозы погоды по пунктам России, СНГ и мира (включающие важные для авиации метеовеличины, такие как направление и скорость ветра, видимость, явления погоды, количество и форма облачности, нижняя и верхняя граница облачности), а также ознакомиться с разнообразными материалами по авиационной метеорологии и подборкой полезных ссылок на эту тему.

Сайт Метеоцентр.Азия посвящён разработке технологий оптимизации авиаметеорологического обслуживания, включая проектирование и перспективное создание нескольких автоматизированных авиаметеорологических систем:
- система выпуска высокодетальных прогностических карт явлений погоды для нижнего воздушного пространства по России и ближнему зарубежью;
- система верификации прогнозов TAF (выпускаемых синоптиками официальных АМСГ РФ и ближнего зарубежья) и AUTOTAF (выпускаемых сайтом Метеоцентр.Азия) - выявление ошибок, онлайн-сопоставление с фактической погодой METAR, автоматическое внесение коррективов в прогнозы при резком отклонении фактической погоды от прогноза, подсчёт оправдываемости прогнозов по элементам и в целом;
- система обработки, анализа и отображения авиаметеорологической информации для применения провайдерами метеорологической информации.

Рекомендуем: Читайте продажа моторных яхт услуги.

Погода в Сухане - сегодня

Время (UTC), дата Ветер
(°,м/с) 
Видим.   Явления Облачность Т
(°С)
Тd
(°С)
f(%) Тe
(°С)
Pmin
(гПа)
dP
(гПа)
Po
(мм)
O2
(г/м3)
Тmin Tmax R s Состояние
почвы
18 13.01.17 тихо ()   20000 м    ясно 
-47.6 -50.5 72 -48  1047.3  0.6  776  381           
00 14.01.17 тихо ()   20000 м    ясно 
-48.6 -51.6 71 -49  1047  0.1  776  383  -48.6      36  равномерный
сухой снег
100% 
03 14.01.17 тихо ()   20000 м    ясно 
-48.6 -51.6 71 -49  1047.8  0.8  777  383           
06 14.01.17 тихо ()   20000 м    3/0 верхняя 
[Cs]
-48.1 -50.5 76 -48  1048.3  0.5  777  382           
09 14.01.17 тихо ()   20000 м    3/0 средняя, верхняя 
[Ac lent|Cs]
-47.8 -50.5 73 -48  1048.7  0.4  777  382           
15 14.01.17 тихо ()   20000 м    ясно 
-46 -48.5 75 -46  1049  0.4  778  379           
18 14.01.17 тихо ()   20000 м    ясно 
-46 -48.5 75 -46  1049.1  0.1  778  379           
21 14.01.17 тихо ()   20000 м    ясно 
-46.3 -48.5 78 -46  1049.5  0.4  778  380           
00 15.01.17 тихо ()   20000 м    ясно 
-46.7 -49.4 74 -47  1049.4  -0.1  778  380  -46.7      36  равномерный
сухой снег
100% 
03 15.01.17 тихо ()   20000 м    ясно 
-47 -49.4 76 -47  1049.2  -0.2  778  381           
06 15.01.17 тихо ()   20000 м    ясно 
-46.2 -48.5 77 -46  1048.6  -0.6  777  379           
09 15.01.17 тихо ()   20000 м    ясно 
-46.5 -49.4 72 -47  1048.6  777  380           
18 15.01.17 тихо ()   20000 м    ясно 
-47.1 -49.4 77 -47  1047.4  -0.5  777  380           
00 16.01.17 тихо ()   20000 м    ясно 
-47.2 -49.4 78 -47  1045.8  -0.6  775  380  -47.2      36  равномерный
сухой снег
100% 
03 16.01.17 тихо ()   20000 м    1/0 верхняя 
[Cs]
-47.1 -49.4 77 -47  1044.3  -1.5  774  379           
06 16.01.17 тихо ()   20000 м    3/0 верхняя 
[Cs]
-46.5 -49.4 72 -47  1043.5  -0.8  774  378           
09 16.01.17 тихо ()   20000 м    1/0 средняя 
[Ac lent]
-47 -49.4 76 -47  1042.6  -0.9  773  378           
18 16.01.17 тихо ()   20000 м    3/0 верхняя 
[Cs]
-45.1 -47.6 75 -45  1039.7  -0.9  771  374           
21 16.01.17 тихо ()   20000 м    4/0 верхняя 
[Ci fib]
-45.6 -48.5 72 -46  1038.7  -1  770  375           
00 17.01.17 тихо ()   20000 м    ясно 
-46 -48.5 75 -46  1037.7  -1  769  375  -46      36  равномерный
сухой снег
100% 
03 17.01.17 тихо ()   20000 м    3/0 средняя 
[Ac lent]
-46.3 -48.5 78 -46  1036.9  -0.8  769  375           
06 17.01.17 тихо ()   20000 м    5/0 средняя, верхняя 
[Ac lent|Ci fib]
-45.7 -48.5 73 -46  1035.8  -1.1  768  374           
09 17.01.17 тихо ()   20000 м    3/0 средняя 
[Ac lent]
-46 -48.5 75 -46  1035.1  -0.7  767  374           
18 17.01.17 тихо ()   20000 м    1/0 верхняя 
[Ci fib]
-45.9 -48.5 74 -46  1032.6  -0.9  766  373           
21 17.01.17 тихо ()   20000 м    ясно 
-46.5 -49.4 72 -47  1031.6  -0.9  759  371           
Время (UTC), дата Ветер
(°,м/с) 
Видим.   Явления Облачность Т
(°С)
Тd
(°С)
f(%) Тe
(°С)
Pmin
(гПа)
dP
(гПа)
Po
(мм)
O2
(г/м3)
Тmin Tmax R s Состояние
почвы

Для получения пояснительной информации подведите курсор к названию столбца.

ПОГОДА в Сухане - архив

Всё, что Вы хотите узнать о погоде в Сухане - удобно и подробно!

Выберите нужную дату (начиная с 1 января 2015* года) и нажмите кнопку "Найти".
Будут отображены архивные сводки погоды по пункту Сухана, начиная с указанной даты.


Отображать данные в формате CSV (для использования в таблицах Excel)


Внимание! Наш архив погоды предназначен исключительно для личного некоммерческого использования в познавательных целях. Если Вам необходимы официальные справки о состоянии погоды (для производственных, юридических, коммерческих и т.п. целей), обращайтесь в органы Росгидромета.

*Примечание: данная дата относится к архиву по метеостанциям СССР (Россия, СНГ, Балтия).
Архив по метеостанциям Зарубежной Европы и Азии (кроме Китая) хранится 10 дней, по другим регионам земного шара (Китай, Африка, Америка, Австралия, Океания) - 1 день.

Сухана - район местоположения метеостанции


Название, широта, долгота, высота метеостанции:
Сухана 68.62°ш. 118.33°д. 77 м над ур. моря [Российская Федерация]

Дополнительная информация

В oтличие oт бoльшинства пoгoдных сайтoв мы публикуем пoдрoбную метеoинфoрмацию в детальнoм прoфессиoнальнoм фoрмате.

Характеристики температуры и влажнoсти вoздуха измеряются на высoте 2 м в тени вдали oт зданий и деревьев.
Скoрoсть ветра измеряется на высoте 10 м (на урoвне рoста челoвека скoрoсть ветра ниже в 1.5-2 раза). Если метеoстанция нахoдится в гoрoде или в лесу, тo скoрoсть ветра занижена на 2-4 м/с пo сравнению с oткрытым местoм. Скoрoсть ветра над акватoриями крупных рек и oзёр, а также на вершинах хoлмoв на 2-5 м/с выше, чем в oбычных услoвиях.
Атмoсфернoе давление в разных тoчках местнoсти мoжет значительнo oтличаться oт давления на метеoстанции, в зависимoсти oт услoвий рельефа (при пoдъёме на 10 м давление пoнижается примернo на 1 мм рт.ст.).